GFSWCAN_prec_radar_138.txt.gz
Reflectivity
8 20 0 10 18 18 0 -4 -0 -20 -20 -20 -20 -20 -20 -11 7 23 -0 -20 4 35 6 -20 -20 -20 -20 -20 -20 -20 -20 -20 -20 -13 -9 -20 -20 -20 -20 -20 -20 -20 -9 -15 -16 11 -9 -4 -19 -20 -12 -20 -20 -20
12 10 1 5 -20 18 19 14 -18 -20 -20 -20 -20 -20 -20 -20 12 20 28 -19 -18 28 24 8 -20 -13 -2 -20 -20 -20 -20 -20 -16 -20 -20 -20 -20 -20 -20 -20 -20 -20 -20 -20 -15 -20 -11 3 10 -20 -20 -20 -20 -20
-14 3 11 10 14 -16 12 -15 -18 6 -20 -17 -20 -20 -20 -14 -17 21 35 -7 0 29 28 10 14 -20 -20 -20 -20 -20 -20 -20 -20 12 30 14 4 -20 -20 -20 -20 -20 -20 -20 -19 -17 4 -19 -5 -19 9 -14 -20 -20
14 -2 -6 -9 -0 -20 -5 -20 -4 3 -20 -20 -20 -15 -20 -18 -7 19 41 14 6 8 -18 -20 -10 1 4 -10 -20 -5 13 11 14 -13 7 -1 -0 -12 -16 -20 -20 -20 -13 -16 -14 -20 -11 -20 -20 -10 -20 -20 -20 -20
-13 10 13 13 8 -13 -20 1 -20 -20 16 -5 -2 10 -20 -2 12 35 37 26 -11 -9 0 -20 -20 -20 -20 -8 -14 -20 -20 -20 -20 -10 21 -18 -20 -16 -6 -20 -20 -20 -20 -10 -16 -2 -12 -20 -20 -20 -20 -20 -20 -20
5 -19 -16 14 -4 -7 14 -20 -19 8 16 -20 -19 9 14 18 -19 36 36 36 5 -20 -20 -20 -20 -20 -14 -11 -20 -20 -20 -20 -19 3 20 5 -20 -13 8 -20 -20 -7 -16 -20 -20 -11 -20 -20 -20 -20 -20 -20 -20 -20
-3 9 13 11 -2 16 -17 -10 -20 -20 -20 12 -5 -20 -11 17 32 38 20 9 -20 -20 17 -11 -20 7 -14 -18 -20 -20 -20 -20 7 -20 -16 -6 -18 17 12 -20 -6 1 -20 -20 -20 -20 -20 -20 -20 -20 -20 -20 -20 -20
-15 -20 9 -11 -1 -5 7 -1 -10 16 -20 -14 -10 -20 18 22 28 38 12 -17 -20 -20 -18 -4 -20 -20 -6 10 13 7 2 11 10 -5 -14 -16 10 33 3 -20 -1 1 -20 -20 -20 -20 -20 -20 -20 -20 -20 -20 -20 -20
-2 -19 -20 3 4 5 1 8 14 -13 20 -9 21 -20 26 25 38 31 23 9 -19 -20 -19 -17 -7 -20 15 -18 -1 16 2 17 9 13 8 8 13 -20 -20 -20 -20 -20 -20 -20 -20 -20 -20 -20 -20 -20 -20 -20 -20 -20
-19 -20 -5 -0 7 11 8 13 12 16 -10 -5 25 33 23 31 7 -6 19 -1 33 22 -3 -20 -20 -10 -20 -13 -19 2 21 11 10 -20 -20 -18 -20 -20 -10 -20 -20 -20 -20 -20 -20 -20 -20 -20 -20 -20 -20 -20 -20 -20
28 31 34 32 27 9 15 12 15 20 27 35 31 17 4 -20 -15 12 8 4 3 27 -20 -20 -20 -20 -20 -13 -2 4 13 3 -20 -20 -20 -20 -20 -13 -20 -20 -20 -20 -20 -20 -20 -20 -20 -20 -20 -20 -20 -20 -20 -20
39 37 34 31 33 33 21 21 19 31 37 29 -6 16 8 7 15 7 4 -12 6 13 -20 -20 -20 1 -20 25 22 12 3 -15 -20 -20 -20 -20 -11 1 -20 -20 -20 -20 -20 -20 -20 -20 -20 -20 -20 -20 -20 -20 -20 -20
35 32 15 -4 6 33 30 29 29 32 5 -20 22 2 18 16 12 -19 -18 -9 24 -17 -20 -20 -20 -20 -20 -19 16 10 -3 -19 -20 -20 -20 -18 -10 -20 -20 -20 -20 -20 -20 -20 -20 -20 -20 -20 -20 -20 -20 -20 -20 -20
-6 13 23 10 29 34 32 34 9 4 -20 -19 19 -20 -20 7 -20 -20 -20 -20 -20 -20 -20 -20 -20 5 -18 -20 -20 -20 -20 -20 -20 -20 -2 -6 -20 -20 -20 -20 -20 -20 -20 -20 -20 -20 -20 -20 -20 -20 -20 -20 -20 -20
5 -10 30 17 12 11 -3 -20 -20 -20 -20 10 16 -18 -20 -20 -20 -20 -20 -20 -20 -20 -20 -20 -20 -20 -20 -20 -20 -20 -18 -16 -20 -9 -16 -20 -20 -20 -20 -20 -20 -20 -20 -20 -20 -20 -20 -20 -20 -20 -20 -20 -20 -20
16 6 14 20 32 17 -9 -2 7 3 7 18 4 -6 -20 -7 -7 -20 -20 -20 -20 -20 -20 -20 -20 -20 -15 -20 -20 -20 -20 -20 -20 -20 -20 -20 -20 -20 -20 -20 -20 -20 -20 -20 -20 -20 -20 -20 -20 -20 -20 -20 -20 -20
16 -20 0 10 10 13 22 24 23 2 -20 -20 -20 -20 -19 -20 -20 -20 -20 -20 -20 -20 -20 -20 -20 -20 -20 -20 -20 -20 -20 -20 -20 -20 -20 -20 -20 -20 -20 -20 -20 -20 -20 -20 -20 -20 -20 -20 -20 -20 -20 -20 -20 -20
9 -7 -20 -20 1 9 6 -2 -8 -4 -20 -15 -1 -9 -18 -15 -19 -20 -20 -20 -20 -20 -20 -20 -20 -19 -20 -20 -20 -19 -13 -20 -20 -20 -20 -20 -20 -20 -20 -20 -20 -20 -20 -20 -20 -20 -20 -20 -20 -20 -20 -20 -20 -20
9 11 2 -11 -20 -20 -20 -13 -9 -18 -14 -17 -18 -20 -18 -10 -18 -20 -16 7 10 -1 5 8 -4 -20 -20 -20 -20 -20 -20 -20 -20 -20 -20 -20 -20 -20 -20 -20 -20 -20 -20 -20 -20 -20 -20 -20 -20 -20 -20 -20 -20 -20
-20 -20 -14 -0 2 2 -10 -4 -15 -8 -8 15 -2 -0 7 5 6 7 -1 6 7 -3 -0 -20 -20 -20 -20 -20 -20 -20 -20 -20 -20 -20 -20 -20 -20 -20 -20 -20 -20 -20 -20 -20 -20 -7 -20 -20 -20 -20 -20 -20 -20 -20
-20 -20 -20 -20 -20 -20 -20 -20 -20 -7 12 16 8 -16 5 -16 4 -12 -20 -20 -20 -0 -20 -20 -20 -20 -20 -20 -20 -20 -20 -20 -20 -20 -20 -20 -20 -20 -20 -20 -20 -20 -20 -20 -20 -20 -20 -20 -20 -20 -20 -20 -20 -20
-20 -20 -20 -20 -20 -20 -20 -20 -20 -20 -10 18 15 5 11 2 0 -7 -20 -20 -20 -17 -20 -20 -16 -20 -20 -20 -20 -20 -20 -20 -20 -17 -4 -8 -20 -20 -20 -20 -20 -20 -20 -20 -20 -20 -20 -20 -20 -20 -20 -20 -20 -20
-20 -20 -20 -20 -20 -20 -20 -20 -20 -20 -20 -20 -20 -20 -20 -20 -20 -20 -20 -20 -19 -19 -20 -20 -20 -20 -20 -20 -20 -20 -20 -20 -20 -20 -20 -20 -20 -20 -20 -20 -20 -20 -20 -20 -20 -20 -20 -20 -20 -20 -20 -20 -20 -20
-20 -20 -20 -20 -20 -20 -20 -20 -20 -20 -20 -20 -20 -20 -20 -20 -20 -20 -20 -20 -19 -18 -20 -20 -20 -20 -20 -20 -20 -20 -20 -20 -20 -20 -20 -20 -20 -19 -20 -20 -20 -20 -20 -20 -20 -20 -20 -20 -20 -20 -20 -20 -20 -20
-20 -20 -20 -20 -20 -20 -20 -20 -20 -20 -20 -20 -20 -20 -20 -20 -20 -20 -20 -20 -19 -17 -20 -20 -20 -20 -20 -20 -20 -20 -20 -20 -20 -20 -20 -20 -20 -20 -20 -20 -20 -20 -20 -20 -20 -20 -20 -20 -20 -20 -20 -20 -20 -20
-20 -20 -20 -20 -20 -20 -20 -20 -20 -20 -20 -20 -20 -20 -20 -20 -20 -20 -20 -20 -20 -19 -18 -20 -20 -20 -20 -20 -20 -20 -20 -20 -20 -20 -20 -20 -20 -20 -20 -20 -20 -20 -20 -20 -20 -20 -20 -20 -20 -20 -18 -18 -20 -20
-20 -20 -20 -20 -20 -20 -20 -20 -20 -20 -20 -20 -20 -20 -20 -20 -20 -20 -20 -20 -20 -18 -18 -16 -17 -17 -20 -20 -20 -20 -20 -20 -20 -20 -20 -20 -20 -20 -20 -20 -20 -20 -20 -20 -20 -20 -20 -20 -20 -20 -20 -19 -20 -20
-20 -20 -20 -20 -20 -20 -20 -20 -20 -20 -20 -20 -20 -20 -20 -20 -20 -20 -20 -19 -20 -20 -20 -16 -14 -18 -20 -20 -20 -20 -20 -20 -20 -20 -20 -20 -20 -20 -20 -20 -20 -20 -20 -20 -20 -20 -20 -20 -20 -20 -20 -20 -20 -20
-20 -20 -20 -20 -20 -20 -20 -20 -20 -20 -20 -20 -20 -20 -20 -20 -20 -20 -20 -20 -20 -20 -20 -18 -17 -20 -20 -20 -20 -20 -20 -20 -20 -20 -20 -20 -20 -20 -20 -20 -20 -20 -20 -20 -20 -20 -20 -20 -20 -20 -20 -20 -20 -20
-20 -20 -20 -20 -20 -20 -20 -20 -2 -12 -5 -20 -20 -20 -20 -20 -20 -20 -20 -20 -20 -20 -20 -20 -20 -20 -20 -20 -20 -20 -20 -20 -20 -20 -20 -20 -20 -20 -20 -20 -20 -20 -20 -20 -20 -20 -20 -20 -20 -20 -20 -20 -20 -20
-20 -20 -20 -20 -20 -20 -20 -16 -10 -14 2 -17 -20 -20 -20 -20 -20 -20 -20 -20 -20 -20 -20 -20 -20 -20 -20 -20 -20 -20 -20 -20 -20 -20 -20 -20 -20 -20 -20 -20 -20 -20 -20 -20 -20 -20 -20 -20 -20 -20 -20 -20 -20 -20
-20 -20 -20 -20 -20 -20 -19 -20 -20 -20 -20 -20 -20 -20 -20 -20 -20 -20 -20 -20 -20 -20 -20 -20 -20 -20 -20 -20 -20 -20 -20 -20 -20 -20 -20 -20 -20 -20 -20 -20 -20 -20 -20 -20 -20 -20 -20 -20 -20 -20 -20 -20 -20 -20
-20 -20 -20 -20 -20 -20 -20 -20 -20 -20 -20 -20 -20 -20 -20 -20 -20 -20 -20 -20 -20 -20 -20 -20 -20 -20 -20 -20 -20 -20 -20 -20 -20 -20 -20 -20 -20 -20 -20 -20 -20 -20 -20 -20 -20 -20 -20 -20 -20 -20 -20 -20 -20 -20

GFSWCAN_prec_radar_144.txt.gz
Reflectivity
7 -20 15 23 23 25 20 37 17 9 11 16 29 28 24 20 22 7 18 -12 25 27 17 -20 -20 -20 -20 -5 -9 -16 -11 -2 -11 -6 -20 -20 -20 -20 -20 -20 -20 -18 1 10 6 10 9 -20 -20 -14 12 -20 -20 -20
9 -17 19 20 32 31 24 43 30 17 16 32 27 21 32 22 29 -15 3 15 8 20 27 -4 -20 -20 -20 -20 -20 -20 -11 -20 -1 -6 -10 1 4 3 -20 -1 -20 -6 -20 2 -17 -3 -17 -20 -20 -20 -20 -20 -12 1
-20 -20 -16 4 22 35 32 40 33 22 24 16 21 33 36 35 18 -19 -2 -13 9 -1 -1 -14 -19 -20 -20 -20 -20 -2 -18 -10 -9 -16 -7 -4 17 -14 7 3 -15 -2 -20 -16 -15 -20 -20 -20 -20 -20 -20 -18 -20 -19
2 -12 -20 16 23 37 41 39 40 34 20 16 20 29 27 20 -18 -20 -12 2 -19 -3 -2 3 -20 -20 -20 -20 -20 -20 -4 -20 -17 3 19 9 13 10 8 6 7 -15 3 -20 -19 -20 -20 -20 -20 -20 -20 -20 -20 -20
4 -14 5 -8 20 20 38 33 32 27 24 12 7 3 -5 2 12 -12 -2 6 -19 -20 11 -1 -19 -20 -20 -20 -20 15 -19 -2 9 17 15 5 -4 10 -3 1 3 -20 -20 2 -16 -12 -5 -20 -20 -20 -11 -20 -20 -20
-0 -20 16 -11 -2 6 25 33 25 24 14 -20 -20 -20 -20 -20 -19 -9 -19 -0 12 -20 -19 2 -20 -20 -20 -20 -20 -20 -20 -0 21 21 19 19 -19 3 -1 -20 -20 -20 -20 -20 -20 -20 -10 -18 -20 -20 -20 -20 -20 -20
12 -4 -20 -15 -12 -18 -6 19 21 16 14 4 -8 -20 -20 -13 -12 -13 -14 -10 -1 -20 -11 14 -10 -20 -20 -17 -11 10 -9 12 15 10 24 15 6 -0 6 3 -20 -20 -20 -20 -20 -20 -20 -20 -20 -20 -20 -20 -20 -20
12 13 -3 -20 -14 10 -20 -1 14 9 10 13 6 12 17 14 3 -20 8 -15 -7 -19 -0 15 13 -14 -20 -3 12 12 10 2 8 6 -2 6 -5 9 2 -20 -20 -20 -20 -20 -20 -20 -20 -20 -20 -20 -20 -20 -20 -20
-14 13 8 -20 -20 -20 8 13 12 2 5 9 14 16 19 16 7 7 -20 16 -6 -18 5 3 2 1 -4 1 6 7 11 19 8 13 7 10 1 10 -20 -20 -20 -20 -20 -20 -20 -20 -20 -20 -20 -20 -20 -20 -20 -20
-15 -19 -18 11 13 -20 -20 11 13 -20 -19 15 16 -17 13 -5 -8 0 -19 18 31 13 1 -7 -20 21 -20 -0 6 -1 14 6 22 -0 -5 13 -17 -20 -20 -20 -20 -20 -20 -20 -20 -20 -20 -20 -20 -20 -20 -20 -20 -20
-20 3 -8 -3 11 -20 -20 -20 -15 7 20 -14 5 13 4 9 -14 13 20 11 22 14 3 -7 -20 4 -11 1 18 -2 10 18 15 10 15 8 -20 -20 -20 -20 -20 -20 -20 -20 -20 -20 -20 -20 -20 -20 -20 -20 -20 -20
9 14 14 -6 -12 -20 5 2 -9 20 6 18 23 15 22 30 21 18 17 7 -4 10 -20 -20 -20 -20 5 12 -20 16 12 3 9 -2 17 3 -20 -20 -20 -20 -20 -20 -20 -20 -20 -20 -20 -20 -20 -20 -20 -20 -20 -20
2 7 8 10 -2 -16 -14 19 16 -20 5 20 10 5 21 -16 21 14 8 -2 -20 -20 -6 -20 -18 -6 19 -20 -20 -5 18 22 -14 8 -17 -20 -20 -20 -20 -20 -20 -20 -20 -20 -20 -20 -20 -20 -20 -20 -20 -20 -20 -20
3 1 9 8 12 13 17 7 -20 19 3 18 -4 -13 -16 -4 7 6 -20 -20 -20 -20 -20 -20 -17 -20 -20 -5 15 -11 9 -7 21 14 -20 -20 -20 -20 -20 -20 -20 -20 -20 -20 -20 -20 -20 -20 -20 -20 -20 -20 -20 -20
7 5 7 15 12 13 8 -14 -20 -12 20 -15 -20 -17 -20 -20 -13 -20 -20 -20 -20 -20 -20 -17 -1 5 0 15 -20 5 -9 -5 -7 -20 -20 -20 -20 -20 -20 -20 -20 -20 -20 -20 -20 -20 -20 -20 -20 -20 -20 -20 -20 -20
8 12 19 5 3 -16 -20 -20 17 19 -3 -5 23 -9 -19 -20 0 -14 -20 -20 -20 -20 19 -2 27 19 17 2 10 -14 -20 -20 -20 -20 -20 -20 -20 -20 -17 -20 -20 -20 -20 -20 -20 -20 -20 -20 -20 -20 -20 -20 -20 -20
5 10 5 6 -14 10 5 19 22 10 21 2 1 -20 -20 -20 -20 -2 -20 -17 -19 -20 -20 -0 6 -17 23 -2 -3 -20 -20 -20 -20 -20 -7 -20 -20 -20 -20 -20 -20 -20 -20 -20 -20 -20 -20 -20 -20 -20 -20 -20 -20 -20
-2 15 8 13 12 16 20 10 19 14 19 4 17 2 -4 -20 -20 -16 -18 -20 -20 -20 -20 -20 14 -20 11 7 -20 -12 -8 -5 -19 -20 -19 -20 -20 -20 -20 -20 -20 -20 -20 -20 -20 -20 -20 -20 -20 -20 -20 -20 -20 -20
4 12 11 0 8 5 9 8 4 13 -10 7 0 3 2 0 -18 -20 -20 -11 -20 -20 -8 6 7 12 -3 -20 -20 -13 -20 -5 -19 -20 -20 -17 -20 -20 -20 -20 -20 -20 -20 -20 -20 -20 -20 -20 -20 -20 -20 -20 -20 -20
-20 -19 -20 -20 -1 13 16 -20 -20 1 11 7 4 9 -9 -15 -14 -13 -7 -13 -20 -16 13 9 -14 -20 -16 -18 -20 -20 -17 -10 -20 -20 -16 -13 -17 -20 -20 -20 -20 -20 -20 -20 -20 -20 -20 -20 -20 -20 -20 -20 -20 -20
10 2 -19 2 -20 -20 24 29 13 19 3 4 5 6 -2 4 11 20 7 23 14 12 -9 -20 -9 -20 -19 -20 -20 -20 -20 -20 -20 -16 -20 -20 -20 -20 -20 -20 -20 -20 -20 -20 -20 -20 -20 -20 -20 -20 -20 -5 -4 -20
-20 -5 10 -2 14 23 -17 16 21 17 18 6 16 18 7 11 10 15 25 12 11 -2 -14 -8 4 -3 -20 -20 -20 -20 -20 -20 -20 -18 -18 -20 -20 -20 -20 -20 -20 -20 -20 -20 -20 -20 -20 -20 -20 -20 -2 -3 -20 -20
-20 -2 16 17 14 -6 1 14 18 15 10 10 9 -20 -13 2 -2 -13 14 3 -2 -2 -8 -1 -5 -20 -20 -20 -20 -20 -20 -20 -20 -19 -16 -16 -20 -20 -20 -20 -20 -20 -20 -20 -20 -20 -18 -20 -20 -20 -20 -20 -20 -17
-0 -3 -2 -3 1 5 -12 3 -3 -11 -20 -20 -20 -20 -20 -18 -20 -20 -20 -19 -16 -20 -20 -20 -20 -20 -20 -20 -20 -20 -20 -20 -20 -20 -18 -17 -18 -17 -18 -18 -19 -20 -20 -20 -19 -20 -20 -20 -20 -20 -20 -20 -20 -20
-20 -16 -5 -12 -19 -19 -20 -20 -20 -20 0 10 -7 -20 -7 -19 -20 -20 -20 -12 -3 -2 -20 -20 -20 -20 -20 -20 -20 -20 -20 -20 -20 -20 -18 -18 -18 -19 -20 -20 -20 -20 -20 -20 -4 -20 -20 -20 -20 -20 -20 -20 -20 -20
-20 -20 -20 -20 -20 -20 -20 -20 -20 -20 -20 -19 -16 -20 -20 -15 -20 -20 -20 -15 -10 -20 -20 -6 -7 -20 -20 -20 -20 -20 -20 -20 -20 -20 -20 -20 -20 -20 -20 -20 -20 -20 -20 -19 -20 -20 -20 -20 -20 -20 -20 -20 -20 -20
-20 -20 -20 -20 -20 -20 -20 -20 -20 -20 -20 -20 -20 -20 -20 -20 -20 -20 -10 -20 -19 -20 -20 -20 -20 -20 -20 -20 -20 -20 -20 -20 -20 -20 -20 -20 -20 -20 -20 -20 -20 -20 -20 -20 -20 -20 -20 -20 -20 -20 -20 -20 -19 -18
-20 -20 -20 -20 -20 -20 -20 -20 -20 -20 -20 -8 -20 -20 -20 -20 -20 -3 -6 -19 -20 -20 -20 -20 -20 -20 -20 -20 -20 -20 -20 -20 -20 -20 -20 -20 -20 -20 -20 -20 -20 -20 -20 -20 -20 -20 -20 -20 -20 -20 -20 -20 -20 -20
-20 -20 -20 -20 -20 -20 -6 -7 -20 -13 -20 -19 -18 -20 -20 -20 -5 -3 -20 -20 -20 -20 -20 -20 -20 -20 -20 -20 -20 -20 -20 -20 -20 -20 -20 -20 -20 -20 -20 -20 -20 -20 -20 -20 -20 -20 -20 -20 -20 -20 -20 -20 -20 -20
-20 -20 -20 -20 -20 -20 -0 -1 5 -0 -20 -20 -20 -20 -20 -20 -20 -20 -20 -9 -3 -2 -2 -20 -20 -18 -20 -20 -20 -20 -20 -20 -20 -19 -12 -20 -20 -20 -20 -20 -20 -20 -14 -20 -20 -20 -20 -20 -20 -20 -20 -20 -20 -20
-20 -20 -20 -20 -18 -3 6 -20 -20 -20 -20 4 -20 -5 -20 -16 -20 -20 -20 -20 -20 -20 -20 -20 -20 -20 -20 -20 -20 -20 -20 -20 -20 -20 -20 -20 -20 -20 -20 -20 -4 -15 -17 -20 -20 -20 -20 -20 -20 -20 -20 -20 -20 -20
-20 -20 -20 -20 -19 0 3 3 1 -4 -20 -2 -11 -20 -20 -20 -20 -20 -20 -20 -20 -5 -19 -11 -4 -20 -20 -20 -20 -20 -20 -20 -20 -20 -20 -20 -2 -19 -20 -20 -20 -20 -20 -20 -20 -20 -20 -20 -20 -20 -20 -20 -20 -20
-20 -20 -20 -20 -20 -20 -20 -20 -20 -20 -20 -20 -20 -20 -20 -5 -20 -20 -20 -20 -20 -20 -20 -20 -20 -20 -20 -20 -20 -20 -20 -20 -20 -20 -20 -20 -20 -20 -20 -20 -20 -20 -20 -20 -20 -20 -20 -20 -20 -20 -20 -20 -20 -20

GFSWCAN_prec_radar_150.txt.gz
Reflectivity
2 16 -7 1 13 -4 5 13 14 13 7 3 -20 -20 -9 24 34 38 38 30 22 19 15 -18 -20 -20 -20 -4 10 -16 18 -5 -10 -13 -20 -20 -20 -20 -20 -20 8 -7 -14 -20 -4 8 7 -20 -4 -20 -20 -20 -20 -20
-20 16 16 -20 13 -20 -15 9 -3 13 4 1 -20 -2 16 30 35 40 37 27 -6 -15 -4 -20 -20 -20 -20 7 -8 -14 -16 -16 -20 -20 -20 -20 -20 -18 -20 3 -20 -17 13 2 -20 -18 -17 -20 -20 -20 -12 -20 -20 -20
1 13 12 -16 -17 -16 -19 -5 -3 -3 1 4 1 0 25 34 36 39 35 15 2 16 5 -4 -20 -20 -20 -20 -20 8 -16 -20 -15 -20 -20 -15 -2 -20 9 -18 -20 -20 4 -20 -10 -11 -20 -16 3 -20 -20 -20 -20 -20
-10 7 15 -20 -14 11 -20 -20 -5 3 -2 -9 4 24 21 33 41 38 18 5 3 1 7 18 -8 -20 -20 -20 -20 -20 -20 -20 -20 -2 23 -20 -3 -19 4 -1 13 -14 -20 -20 -20 -20 -20 -20 -20 -20 -20 -20 -20 -20
6 13 -20 -20 15 -20 -16 -11 -7 15 9 -12 21 17 23 39 38 34 14 17 -1 5 -6 1 22 14 -20 -20 -20 -20 -20 -20 -20 25 21 -1 -20 11 -15 -11 -20 -20 -15 20 -20 -16 -20 -20 -20 -20 -20 -20 -20 -20
5 -20 -20 -20 -12 5 23 33 8 0 6 20 27 20 27 39 40 26 46 27 -20 -18 -20 -9 5 -2 -3 -20 -20 -20 -20 -9 7 -14 -20 -20 -20 16 14 -20 -20 -20 -20 -20 -20 -20 -20 -19 -20 -19 -20 -20 -20 -20
-20 -20 -20 5 27 36 38 30 21 13 20 32 24 28 35 42 31 22 6 9 -20 -20 -7 15 -3 -20 -10 1 -15 2 -20 7 19 8 -16 -18 -11 2 -9 -7 -20 -20 -20 -20 -20 -20 -20 -20 -20 16 -19 -20 -20 -20
-20 13 -14 25 36 39 41 29 30 35 26 21 22 39 35 34 19 11 -19 12 -9 -20 -17 10 20 10 -20 -8 12 -19 12 17 5 3 -12 -7 -12 -5 9 -20 -19 -20 -20 -20 -20 -20 -20 -20 -2 5 -20 -20 -20 -20
-20 17 11 26 38 35 38 40 36 32 38 36 29 26 17 7 18 27 17 -2 -20 -20 -20 -17 -20 -3 -20 4 13 14 11 17 -4 3 -1 -0 -20 -2 -20 -20 -20 -20 -20 -20 -20 -20 -20 -20 -20 -17 -20 -20 -20 -20
-20 -20 17 25 33 32 29 35 39 36 23 3 -3 -0 11 15 14 10 15 2 -20 -20 -20 -20 -20 -18 -15 9 13 2 -7 4 9 -0 -20 -8 -19 -20 -20 -20 -20 -20 -20 -20 -20 -20 -20 -20 -20 -20 -20 -20 -20 -20
-20 -20 -1 5 12 29 17 17 11 -3 -1 -13 -15 1 -9 -12 -14 -16 -16 -20 -20 -20 -20 -20 -20 -20 -20 16 20 6 -0 -10 -5 -20 -1 1 -6 -20 -20 -20 -20 -20 -20 -20 -20 -20 -20 -20 -7 -16 -20 -20 -20 -20
-20 -20 -20 -7 -12 -18 -8 -15 6 1 -20 -10 -15 -6 1 1 -18 -20 -20 -18 -12 -20 -20 -20 -20 -20 14 -13 21 17 -20 17 -7 -17 20 18 -20 -19 14 -11 -20 -15 19 7 -20 -20 -20 -20 -20 -20 -20 -20 -17 -6
4 -17 -20 -20 -20 -20 -20 -20 -12 -20 -20 -20 -20 -18 -18 -9 1 -20 -2 -3 -20 -20 -20 -20 -20 4 20 13 16 19 -15 13 18 14 4 -20 -20 -20 -20 -20 -20 -20 -20 -20 -20 -20 -20 -20 -20 -20 -20 -12 10 -20
-20 -20 -20 -20 -20 -20 -20 -20 -20 -20 -20 -19 -20 -20 -19 -18 -20 -20 -20 -20 -20 -20 8 -16 21 23 22 23 18 -17 -20 -3 1 -17 -20 2 24 14 -20 -20 -20 -20 -6 -20 -20 -20 -20 -20 -20 -20 -20 -0 -20 -20
-20 -20 -20 -20 -20 -20 -20 -20 -20 -10 -17 -17 -20 -20 -20 -20 -20 -10 5 -12 -12 -3 23 21 20 27 16 4 -20 -20 -15 -15 -20 -20 -20 6 3 -9 -20 -20 -20 -20 -2 -20 -20 -20 -20 -20 -20 -20 -20 -20 -20 -20
-3 -14 -18 -20 -20 -20 -20 -20 -20 2 -20 3 1 -20 -20 -7 -20 -20 1 8 -6 9 24 21 19 11 14 -12 -10 -20 -20 -20 -20 18 -1 -20 -20 -20 -20 -20 -20 6 -20 -20 -20 -20 -20 -20 -20 -20 -19 -20 -20 -20
-20 6 -20 -16 -17 -20 -20 -20 7 -6 18 -20 13 -16 19 17 13 -6 -20 -20 -1 22 16 9 8 -19 20 -1 -19 -20 -20 -20 -16 20 -6 -20 -20 -20 -20 -6 11 -5 -20 -20 -20 -20 -20 -20 -20 -20 -20 -20 -20 -20
18 -20 -20 -20 1 -15 5 11 10 8 9 -20 -14 6 -19 15 17 -17 -20 23 -4 -20 22 -16 -20 5 -9 16 16 18 21 -10 -20 -20 -20 -20 -20 -20 -9 -6 -20 -20 -20 -20 -20 -20 -20 -20 -20 -12 -20 -20 -20 -20
-20 -20 -20 -20 -20 2 3 -2 -6 15 -6 10 11 2 -1 -0 18 1 -17 -5 -14 -20 17 -20 7 -20 -0 12 19 -8 -4 -0 -20 -20 -20 -20 -20 -20 -20 -20 -20 -20 -20 -20 -20 -20 -20 -20 -20 -20 -20 -20 -20 -20
-20 -20 -20 -20 -20 7 1 -4 16 9 1 5 -4 -1 25 12 -14 -0 -7 -1 -20 12 15 4 -20 -17 7 -20 -16 -2 -20 -20 -20 -20 -20 -20 -9 3 -4 -16 -20 -20 -20 -20 -20 -20 -20 -20 -20 -20 -20 -20 -20 -20
-16 -11 -20 -20 9 22 -4 23 14 12 15 13 12 16 24 6 1 -1 6 -12 5 10 4 -20 -13 -20 -20 -20 -20 -20 -20 -20 -2 -17 1 -19 -3 10 10 6 -20 -20 -20 -20 -20 -20 -20 -20 -20 -20 -20 -20 -20 -20
-1 -18 -4 9 11 17 20 5 -14 6 -1 -17 9 -10 20 9 -2 -2 -6 3 8 7 14 -13 -20 -20 -20 -20 -20 -20 -20 -20 -20 -20 -14 -9 12 14 20 -9 -20 -20 -18 -18 -20 -19 -19 -20 -20 -20 -4 -0 -6 4
3 -4 -20 -1 -1 -9 3 -20 -11 6 6 19 7 4 14 17 7 2 11 11 6 -20 -20 -20 -20 -20 -20 -20 -20 -20 -20 -20 -20 -20 -19 6 15 22 21 11 6 -13 -11 -20 -20 -20 -20 -20 -20 2 -3 -3 -5 -4
-12 -20 -6 14 6 8 -19 -3 -9 -0 3 7 17 12 -13 2 -10 11 12 -20 -20 -20 -20 -20 -20 -9 -13 -20 -20 -20 -20 -20 -20 -20 -12 -2 -4 1 3 -2 -4 18 -10 -20 -7 -19 -20 -3 -2 -5 3 -3 -8 -5
25 12 -3 -14 -3 6 -18 -1 -19 4 5 10 3 7 6 4 9 7 -1 -20 -19 -5 -7 1 3 -17 -20 -20 -20 -20 -20 -20 -20 -20 -20 1 -5 -17 -1 -4 -3 -20 -20 -3 1 -10 0 0 1 0 4 -10 -12 -4
-8 -20 -16 1 2 -1 1 4 -1 7 11 7 1 2 1 11 10 -2 -9 -8 -1 2 -18 -15 -1 -6 -20 -20 -20 -20 -20 -20 -20 -20 -20 -12 -9 2 -2 -7 -10 -8 -20 -3 -8 0 -20 -1 2 -1 0 -17 -16 2
-20 -20 -11 -20 -20 -20 -12 -20 -20 -4 11 11 15 7 6 10 4 -12 -20 -20 -12 -15 -20 -20 -16 -20 -20 -20 -20 -20 -20 -20 -20 -20 -20 -20 -18 -16 -9 7 2 -20 -20 -20 -14 -20 -12 -0 -13 -5 2 -13 3 1
-10 -14 -3 8 1 -20 -16 -20 -20 -2 6 -20 -20 -1 2 9 -6 -7 -6 -20 -3 -11 -8 -6 -17 -20 -20 -20 -20 -20 -10 -15 -20 -20 -20 -20 -11 -20 -20 -20 -20 -20 -20 -20 -6 -13 -1 -12 -20 2 -20 -20 6 -17
2 -20 -5 -20 -20 8 4 -20 -12 -20 -20 -20 -13 -18 -20 -20 -20 -18 -7 -5 -20 5 3 -5 -7 -5 -20 -20 -20 -6 -4 -19 -18 -20 -6 -7 -8 -2 -8 -15 -1 -20 -20 -20 -20 -14 -20 -20 -19 -6 -18 2 -6 -9
-20 -12 -20 -1 -20 -20 -4 -20 2 8 -20 -20 -20 -14 -15 -20 -20 -20 -20 -10 -3 0 9 3 -11 -3 -3 -6 -6 -5 -16 -20 1 10 6 8 -18 -20 -20 -20 -1 1 -8 0 -12 -19 -20 -20 -18 -20 -20 -14 -4 -10
-5 -14 -13 -1 -8 2 3 -10 -6 -1 -6 -14 9 -1 -13 -15 -20 -20 -17 -10 -12 -8 -15 -18 -20 3 6 4 -1 -14 -10 -16 -20 -20 -5 -16 -8 -14 -18 -11 1 -1 -13 -20 -20 -13 -20 -19 -20 -20 -11 -20 -16 -11
-13 -1 -2 -6 -13 10 -2 -15 1 -13 -4 -14 -10 1 -20 -19 -19 -20 -20 -20 -20 -20 4 6 1 -20 -3 -19 -19 -20 -2 -20 -4 -20 -20 -20 -19 -13 -20 -20 -20 -20 -20 -4 -2 -16 -15 -20 -17 -20 -20 -20 -17 -11
-2 -16 -10 0 -0 -1 5 -1 -2 -5 -4 -4 -7 -5 -20 -3 -19 -20 -20 -20 -2 3 4 1 -1 -6 -20 -20 -20 -15 -0 -14 -20 -20 -20 -19 -20 -18 -7 0 -3 -5 -1 -0 -16 3 -8 -8 -4 -20 -20 -20 -20 -20

GFSWCAN_prec_radar_153.txt.gz
Reflectivity
16 16 12 -20 3 10 -20 11 9 -11 -16 14 9 18 16 12 13 4 7 2 39 28 24 14 -20 -20 -20 -20 -3 -12 28 1 8 -7 -10 -13 -20 -6 -18 -20 -20 -18 1 -20 -20 -20 -6 -20 -20 -17 -20 -20 -20 -20
19 15 -20 -16 -18 4 -20 12 11 12 17 -20 15 15 -4 -20 -17 -17 16 15 34 35 38 8 -20 -20 24 27 27 6 11 5 -16 -11 -20 -20 -20 -20 -20 -20 -20 4 -20 -4 -14 -20 -20 -19 -20 -20 -20 7 -10 -20
11 -18 6 17 13 -20 3 10 11 -1 15 -19 -1 -20 -20 -20 2 -19 13 36 35 44 27 -17 -19 0 -17 -7 -12 -20 -11 -20 -20 -20 -6 -20 -20 -20 -20 -20 -20 -17 -4 -3 17 -20 -20 10 15 -18 -20 -20 -20 -20
-12 10 -18 -7 -12 -1 -20 -20 4 -20 13 -2 -2 -20 -20 -6 11 19 27 39 34 20 -6 -5 -12 -20 -20 -20 -20 -20 -20 -20 -20 -20 -20 -6 7 -20 -20 -20 -20 -20 -9 -20 -20 -20 -20 -20 -20 -20 -20 -20 -20 -20
-13 10 6 -20 -20 -20 -20 -3 10 -1 7 -1 -18 -20 -20 -12 12 23 35 19 32 17 11 -15 -20 -20 -20 -20 -20 -20 -20 -15 5 -20 -20 -20 -20 -20 -20 -20 -20 -20 -14 -20 -20 -11 -20 -20 -20 -20 -20 -20 -20 -20
15 -20 -20 -20 -6 13 -17 -2 1 5 -2 -20 -5 -2 -20 -5 30 31 41 31 40 20 -4 -6 -19 -20 -20 -20 -20 -20 -20 -20 -20 -20 -20 -20 -20 1 6 -20 -20 -20 -20 -20 -20 -20 -20 -20 -20 -20 -20 -20 -20 -20
-20 -20 -20 12 -7 4 15 21 15 2 2 6 1 3 7 26 35 36 30 34 23 5 -20 -20 -20 -20 -20 -20 -20 -20 -20 -20 -20 -20 -20 -20 -20 -20 -20 -20 -20 -20 -20 -20 -20 -20 -20 -20 -20 -20 -20 -9 -20 -20
-20 -20 -5 6 28 33 19 24 26 18 4 10 30 32 39 38 38 33 16 17 -12 -20 -20 -20 2 -20 -20 -20 -20 -20 -20 -20 -20 -20 -20 -20 -20 -20 -19 -20 -20 -20 -20 -20 -20 -20 -20 -20 -20 -20 -20 -20 -20 -20
-12 -10 21 31 40 30 -17 9 17 32 39 28 30 34 33 34 38 31 25 19 -6 -20 -20 -20 -20 -20 -20 -20 -20 -20 -20 -20 -20 -20 -20 -20 -20 -20 -20 -20 -20 -20 -20 -20 -20 -20 -20 -20 -20 -20 -20 -20 -20 -20
-19 15 32 37 41 29 18 30 36 37 32 19 3 10 24 38 28 25 14 -19 -20 -20 -20 -20 -20 -20 -20 -20 -20 -19 -20 -20 -20 -20 -20 -20 -20 -20 -20 -20 -20 -20 -20 -20 -20 -20 -20 -20 -20 -20 -20 -20 -20 -19
-20 -7 26 36 41 42 41 25 15 -7 -6 -1 -18 5 17 25 29 25 18 -16 -20 -20 -20 -20 -20 -20 -20 -20 -20 -20 -20 -20 -19 -20 -20 -20 -20 -20 -20 -20 -20 -20 -20 -20 -20 -20 -20 -20 -20 -20 -20 -20 -20 2
-20 -20 5 26 34 32 26 16 -4 -20 -16 -19 -20 -20 -20 -20 -20 -20 -16 -12 -20 -20 -20 -20 -20 -20 -20 -20 -20 -20 -20 -20 -18 -20 -20 -20 -13 -20 -20 -8 8 17 -20 -20 -20 -20 -20 -20 -20 -20 -20 -20 3 -20
-20 -20 -20 -3 11 13 16 13 13 14 13 2 5 -20 -20 -20 -20 -20 -20 -20 -20 -20 -20 -20 -20 -20 -20 -20 -20 -20 -20 -20 -20 -20 -20 -20 7 -3 -20 12 19 -20 -20 -20 -20 -20 -20 -20 -20 -20 11 9 -20 -20
-20 -20 -20 -20 -20 -20 -10 -20 -20 -13 -20 -20 -20 -20 -20 -20 -20 -20 -20 -20 -20 -20 -20 -20 -20 -20 -20 -17 -20 -20 -20 -2 5 -20 -20 -10 -20 -20 19 -12 -20 -20 -20 7 -20 -20 -20 -20 -20 -16 3 -20 -20 5
-20 -20 -11 -20 -20 -20 -20 -20 -20 -20 -20 -20 -20 -20 -20 -20 -20 -20 -20 -20 -20 -20 -20 -20 -20 -20 -7 12 -17 -19 -2 -20 -18 -20 -19 -20 -20 -20 -20 -20 -20 -20 4 -6 -20 -20 -20 -20 -20 -20 -20 -20 5 -1
-20 -20 -20 -20 -5 -20 -20 -20 -20 -20 -20 -20 -20 -20 -20 -20 -20 -20 -20 -20 -20 -20 25 -9 15 4 26 26 -7 -20 -20 -20 -20 15 -20 -20 -20 -20 -20 -20 -20 -12 -13 -20 -20 -20 -20 -20 -20 -20 -20 -20 -20 -20
-20 -20 -20 -20 -20 -20 -20 -20 -20 -20 -20 -20 -20 -20 -20 -20 -20 -20 -20 -7 -20 22 11 -16 10 8 -20 -19 -20 -20 -20 -20 -20 -20 -20 -20 -11 -20 -20 -20 -0 -1 -20 -20 -20 -20 -20 -20 -20 -20 -20 -18 -20 -20
-8 -20 -20 -20 -20 -20 -20 -20 -20 -20 -20 -20 -20 -20 -20 -20 -20 -20 -20 -20 -20 -20 22 -10 -20 -20 -20 -20 -7 17 10 13 8 -20 -20 -20 -20 -17 -20 -8 10 -13 -20 -20 -20 -20 -20 -20 -20 -20 -20 -20 -20 -20
-20 -20 -20 -20 -20 -20 -20 -20 -20 -20 -20 -20 -20 -4 -14 -20 -20 -20 -20 -20 -20 -1 -20 -20 -20 -20 -20 -20 -20 -20 -14 -15 -20 -19 -20 -20 -20 -20 -16 6 7 -16 -20 -20 -20 -20 -20 -20 -20 -20 -20 -20 -20 -20
-20 -20 -20 -20 -20 -20 -20 -20 -20 -20 -18 3 18 8 10 -10 -20 -20 -6 -20 -20 -20 -1 7 -20 -20 -20 -20 -20 -20 -20 -20 -20 -20 -20 -20 -20 -20 -16 -12 -16 -20 -20 -20 -20 -20 -20 -20 -20 -20 -20 -20 -20 -20
-20 -20 -20 -20 -20 4 -20 7 19 3 29 6 -20 10 15 -4 10 -19 -20 -20 -9 -20 -20 -20 -20 -20 -20 -20 -20 -20 -20 -20 -20 -20 -20 -20 -20 -12 10 24 8 -20 -20 -20 -20 -20 -20 -20 -20 -20 -20 -20 -20 -20
-20 -20 -20 -20 -17 -20 -11 -20 -3 -20 -20 -20 -20 -20 -9 -13 -5 -14 -2 -1 -1 -20 -20 -20 -20 -20 -20 -20 -20 -20 -10 -20 -20 -20 -20 -19 -20 -9 -17 8 -16 -20 -20 -20 -20 -20 -20 -20 -20 -20 -20 -20 -20 -20
-20 -20 -20 -20 -20 -20 -20 -20 -20 -8 -20 -2 5 -15 -12 6 16 19 -12 -16 -20 -20 -20 -19 -20 -20 -20 -20 -20 -20 -20 -20 -20 -20 -17 -18 -13 -11 19 22 22 -8 -20 -20 -20 -20 -20 -20 -20 -20 -20 -20 -20 -20
-20 -20 -20 -20 -3 -20 -20 -19 -16 -20 -20 -20 3 10 2 1 -4 -6 -16 -20 -20 -20 -20 -20 -20 -20 -19 -20 -20 -20 -20 -20 -20 -20 -20 -4 -11 0 15 2 17 13 -20 -20 -20 -20 -20 -20 -20 -20 -20 -20 -18 -20
-1 -20 -6 -20 -8 -2 -20 -20 -20 -20 -20 -20 8 -20 -19 -20 -19 -20 -20 -20 -20 -20 -20 -20 -20 -20 -20 -20 -20 -20 -20 -20 -20 -20 -20 -19 -19 -19 -16 -16 -15 -17 -20 -5 -9 -20 -19 -20 -20 -20 -20 -7 2 -20
-8 -20 -20 -20 7 -19 -14 -15 -12 -8 -1 6 -4 -10 -20 -19 -15 -20 -11 -17 -18 -18 -20 -20 -17 -18 -20 -20 -20 -20 -20 -20 -20 -20 -20 -20 -17 -20 -20 -20 -20 -20 -20 -20 -20 -20 -20 -20 -20 -20 -20 -20 -20 -20
-20 -20 -20 -20 -20 -20 -20 -20 -20 -20 -13 -20 -20 5 -19 -15 -20 -20 -20 -20 -20 -20 -12 -0 -13 -20 -20 -20 -20 -20 -20 -20 -20 -20 -20 -20 -20 -20 -19 -20 -20 -20 -20 -20 -20 -20 -20 -20 -20 -20 -20 -20 -20 -20
-20 -20 -20 2 -4 -15 -17 -4 4 -12 -20 1 -20 -20 -17 -20 -20 -20 -20 -20 -20 -20 -16 -16 -20 -20 -20 -20 -20 -20 -20 -20 -20 -20 -20 -20 -20 -20 -20 -20 -20 -20 -20 -20 -20 -20 -20 -20 -20 -20 -20 -20 -20 -20
-20 -20 -20 -20 -20 -8 -20 1 -8 -20 -20 -20 -20 -17 -20 -20 -20 -20 -20 -20 -20 -20 -6 -20 -14 -16 -20 -20 -20 -20 -20 -20 -20 -20 -20 -20 -20 -20 -20 -20 -20 -20 -20 -20 -20 -20 -20 -20 -20 -20 -20 -20 -20 -20
-20 -20 -20 -20 -20 -20 -20 -20 -20 -17 -20 -20 -20 -20 -20 -20 -20 -20 -20 -20 -20 -20 -19 -11 -20 -20 -19 -20 -20 -20 -20 -20 -20 -7 -19 -20 -20 -20 -20 -20 -20 -20 -20 -20 -20 -20 -20 -20 -20 -20 -20 -20 -20 -20
-17 -9 -3 -15 -16 -20 -20 -20 -20 -20 -20 -20 -20 -10 -6 -5 -20 -20 -20 -20 -20 -16 -15 -20 -20 -20 -15 -20 -20 -20 -20 -20 -20 -20 -20 -20 -20 -20 -20 -20 -20 -20 -20 -20 -20 -20 -20 -20 -20 -20 -20 -20 -20 -20
-14 -20 -17 -20 -20 -18 -20 -20 -7 -20 -9 -16 -15 -1 -6 4 -7 -20 -20 -20 -20 -20 2 -5 -20 -20 -20 -19 -18 -20 -20 -20 -20 -20 -20 -20 -20 -20 -20 -18 -17 -20 -20 -19 -20 -20 -20 -20 -20 -20 -20 -20 -20 -20
-20 -12 -2 -16 -20 -14 -19 -20 -10 -20 -20 -8 -20 -17 -4 -15 -19 -20 -20 -20 -20 -20 -20 -20 -16 -20 -20 -20 -20 -20 -20 -20 -8 -4 -19 -20 -20 -20 -20 -20 -20 -20 -20 -20 -20 -20 -20 -20 -20 -20 -20 -20 -20 -20

GFSWCAN_prec_radar_156.txt.gz
Reflectivity
13 -15 -8 -18 -6 18 -5 -8 6 1 13 -20 3 -18 -20 -10 -19 18 -8 14 2 8 -1 -1 16 -20 6 -20 -7 7 31 31 25 12 -1 3 13 7 8 9 -20 -20 -16 -16 -20 -20 -20 -20 -20 -20 -20 -20 -20 -20
-9 13 11 16 13 -17 10 -18 5 10 -17 1 -12 9 24 8 -4 23 13 -6 28 -7 8 3 21 -20 -7 -20 10 -20 -17 -20 27 13 -8 -20 2 13 8 -7 -2 -8 -20 -20 -20 -20 -20 -20 -20 -20 -20 -20 -20 -20
-20 10 -15 -16 -20 -20 -18 -20 -17 15 -20 -20 -1 14 24 19 -9 20 16 -20 24 11 0 -6 17 23 7 -17 3 -20 8 12 12 8 -4 12 8 2 -15 -19 -20 -20 -20 -20 -20 -20 -20 -20 -20 -20 -20 -20 -6 -19
-20 19 18 21 3 -4 -5 11 10 -20 -20 -20 -11 -7 -2 -9 14 16 12 -20 13 21 12 -18 42 35 2 -20 -20 -20 -20 -3 8 -12 -20 -20 -20 -20 -20 -20 -20 -20 -20 -20 -20 -20 -20 -20 -20 -9 -20 -5 -20 -20
13 14 -2 9 -16 13 -9 -20 -20 -20 -20 -19 -17 -3 5 20 3 7 21 15 12 34 26 23 42 8 -19 -20 -20 -20 -20 -20 -20 -20 -20 -20 -20 -20 -20 -20 -20 -20 -20 -20 -20 -20 -20 9 -20 -9 15 -6 -13 -20
25 11 -17 -20 0 -6 -19 15 -19 9 -19 -18 -5 9 9 3 13 20 23 5 5 39 39 21 26 23 1 -20 -20 -20 -20 -20 -20 -20 -20 -20 -20 -20 -20 -20 -20 -20 -20 -20 -20 -3 -4 -20 -20 -20 -20 -20 -20 -20
-20 -14 8 13 11 10 4 0 -20 -20 -20 -12 0 8 3 -3 0 13 18 -17 -13 35 39 24 16 -8 -20 -20 -20 -20 -20 -20 -20 -20 -20 -20 -20 -20 -20 -20 -20 -20 -20 -20 -20 -20 -20 -20 -20 -20 -20 -20 -20 -20
7 -6 -9 -20 -18 -14 -2 2 -1 -13 -13 4 14 -3 -9 9 18 16 1 11 19 38 33 23 11 -17 -20 -20 -20 -20 -20 -20 -20 -20 -20 -20 -20 -20 -20 -20 -20 -20 -20 -20 -20 -20 -20 -20 -20 -20 -20 -20 -20 -20
-17 -20 -2 7 15 30 32 27 13 -1 5 -2 -8 -13 21 23 27 27 29 32 33 23 4 -15 -20 -20 -20 -20 -20 -20 -20 -20 -20 -20 -20 -20 -20 -20 -20 -20 -20 -20 -20 -20 -20 -20 -20 -20 -20 -20 -20 -20 -20 -20
35 41 34 21 21 13 3 5 16 10 -0 1 32 38 29 35 36 27 26 37 37 16 -20 -20 -20 -20 -20 -20 -20 -20 -20 -20 -20 -20 -20 -20 -20 -20 -20 -20 -20 -20 -20 -20 -20 -20 -20 -20 -20 -20 -20 -20 -20 -20
39 37 36 33 26 19 19 25 33 34 33 35 28 27 36 37 30 34 24 10 0 -10 -20 -20 -20 -20 -20 -20 -20 -20 -20 -20 -20 -20 -20 -20 -20 -20 -20 -20 -20 -20 -20 -20 -20 -20 -20 -20 -20 -20 -20 -20 -20 -20
35 16 31 34 26 27 28 29 27 21 17 14 15 11 22 28 19 14 5 -6 -20 -20 -20 -20 -20 -20 -20 -20 -20 -20 -20 -20 -20 -20 -20 -20 -20 -20 -20 -20 -20 -20 -20 -20 -20 -20 -20 -20 -20 -20 -20 -20 -20 -20
28 24 27 27 -6 13 18 19 21 18 16 17 11 15 18 12 11 3 -10 -20 -20 -20 -20 -20 -20 -20 -20 -20 -20 -20 -20 -20 -20 -20 -20 -20 -20 -20 -20 -20 -20 8 3 -20 -20 -20 -20 -20 -20 -20 -20 -20 -20 -20
15 9 14 1 -20 -20 -20 -20 -20 -20 -20 -20 -20 -20 -20 -20 -20 -20 -20 -19 -7 -4 -17 -20 -20 -20 -20 -20 -20 -20 -20 -20 -20 -20 -20 -20 -20 -20 -20 -20 -17 -20 -19 -17 -20 -20 -20 -20 -20 -20 -20 -20 -19 13
-20 -20 -20 -20 -20 -20 -20 -20 -20 -20 -20 -20 -20 -20 -20 -20 -20 -20 -20 -20 -20 -20 -20 -20 -20 -20 -20 -20 -20 -20 5 -20 -20 -20 -20 -20 -20 -20 5 -1 -20 -20 9 8 14 -9 -20 -20 -20 -20 -20 -8 -12 -20
-20 -20 -20 -20 -20 -20 -20 -20 -20 -20 -20 -20 -20 -20 -20 -20 -20 -20 -20 -20 -20 -20 -20 -20 -20 -20 -20 -20 -19 -20 -20 -20 -20 -20 -20 -1 -20 -20 -20 -20 -20 -20 1 11 13 -20 -20 -20 -20 -20 -0 -2 -20 -12
-20 -20 -20 -20 -20 -20 -20 -20 -20 -20 -20 -20 -20 -20 -20 -20 -20 -20 -20 -20 -20 -20 -20 -20 -20 6 4 -13 13 -6 -20 -20 -20 19 -20 -20 -20 -20 -20 -20 -20 -20 -6 2 -18 -20 -20 -20 -20 -20 -20 -20 -20 -20
-20 -20 -20 -20 -20 -20 -20 -20 -20 -20 -20 -20 -20 -20 -20 -20 -20 -20 -20 -20 -20 -20 -20 0 5 -20 -20 -20 -20 -20 3 6 -15 7 15 -19 -20 -20 -20 -20 -20 -15 7 3 -20 -20 -20 -20 -20 -20 -20 -20 -20 -20
-20 -20 -20 -20 -20 -20 -20 -20 -20 -20 -20 -20 -20 -20 -20 -20 -20 -20 -20 -20 -20 -20 -8 9 2 -20 -20 -20 -20 -20 -20 -20 -9 -15 -20 -20 -20 -20 -20 -20 -20 2 -2 -19 -20 -20 -20 -20 -20 -20 -20 -20 -20 -20
-20 -20 -20 -20 -20 -20 -20 -20 -20 -20 -20 -20 -20 -20 -20 -20 -20 -20 -20 -20 -20 -20 -17 -3 -20 -20 -20 -20 -20 -20 -20 -20 -20 -20 -20 -20 -20 -20 -20 -20 -20 -18 -19 -20 -20 3 -20 -20 -20 -20 -20 -20 -20 -20
-20 -20 -20 -20 -20 -20 -20 -20 -20 -20 -20 -7 -20 -20 -20 8 14 2 -17 -20 -4 -1 -20 -20 -20 -20 -20 -20 -20 -20 -20 -20 -20 -20 -20 -20 -20 -20 -20 -20 -17 -17 -20 -20 -20 -20 -20 -20 -20 -20 -20 -20 -20 -20
-20 -20 -20 -20 -20 -20 -20 -20 -20 -10 -20 -20 -20 -20 -20 -20 -20 -13 -11 -20 -20 -20 -20 -20 -20 -20 -20 -20 -20 -20 -20 -20 -20 -20 -20 -20 -20 -20 -20 -19 -20 -20 -20 -20 -20 -20 -20 -20 -20 -20 -20 -20 -20 -20
-20 -20 -20 -20 -20 -20 -20 -20 -3 -20 -20 -20 -20 -15 -20 -20 -9 13 -10 -20 -20 -20 -20 -20 -20 -20 -20 -20 -20 -20 -20 -20 -20 -20 -20 -20 -15 -20 -20 -20 -20 -20 -20 -20 -20 -20 -20 -20 -20 -20 -20 -20 -20 -20
-20 -20 -20 -20 -20 -20 -20 -20 -20 -20 -20 -20 -20 -20 -20 -20 -19 -12 -20 -20 -20 -20 -20 -20 -20 -20 -20 -20 -20 -20 -20 -20 -20 -20 -20 -20 -12 -20 0 -11 -19 -20 -20 -19 -20 -20 -20 -20 -20 -20 -20 -20 -20 -20
-19 -20 -20 -20 -20 -9 -18 -20 -20 -20 -20 -20 -20 -20 -20 -20 -20 -20 -20 -20 -20 -20 -20 -20 -20 -20 0 -5 -7 -20 -20 -19 -20 -20 -20 -20 -19 -17 -16 -20 -19 -20 -13 -15 -16 -19 -20 -8 -10 -20 -20 -12 -15 -13
-20 -20 -17 -20 -20 -20 -20 -20 -20 -16 -20 -16 -20 -20 -20 -20 -20 -20 -20 -20 -20 -20 -20 -20 -19 -20 -20 -11 1 6 8 -9 -20 -20 -20 -20 -20 -20 -20 -20 -20 -20 -18 -19 3 4 -4 -1 1 -2 4 8 7 -5
-20 -20 -20 -20 -20 -20 -20 -20 -20 -20 -20 -20 -20 -20 -20 -20 -20 -20 5 3 -20 -20 -20 -20 -10 -7 -19 -18 -7 5 -2 -20 -20 -20 -20 -20 -20 -20 -20 -20 -20 -20 -20 -20 -20 -20 -20 -20 -20 -20 -20 -11 -20 -1
-20 -20 -17 -20 -20 -20 -20 -20 -20 -20 -20 -20 -20 -20 -20 -20 -20 -20 -18 -20 -20 -20 -20 -20 -20 -17 -19 -20 -20 -20 -20 -20 -20 -20 -20 -20 -20 -20 -20 -20 -20 -20 -20 -20 -20 -20 -20 -20 -20 -20 -13 -8 -20 -19
-20 -20 -20 -20 -20 -20 -20 -20 -20 -20 -20 -20 -20 -20 -20 -20 -20 -20 -20 -20 -20 -20 -20 -20 -20 -20 -16 -15 -17 -20 -20 -20 -20 -20 -20 -20 -20 -20 -20 -20 -20 -20 -20 -20 -20 -20 -20 -20 -20 -20 -20 -20 -20 -20
-20 -20 -20 -20 -20 -20 -20 -20 -20 -20 -20 -20 -20 -20 -20 -20 -20 -20 -20 -20 -20 -20 -20 -20 -20 -20 -20 -18 -18 -20 -20 -20 -20 -20 -20 -20 -20 -20 -20 -20 -20 -20 -20 -20 -20 -20 -20 -20 -20 -20 -20 -20 -20 -20
-20 -20 -20 -20 -20 -20 -20 -20 -20 -20 -20 -20 -20 -20 -20 -20 -20 -20 -20 -20 -20 -20 -20 -20 -19 -20 -20 -17 -18 -20 -20 -20 -20 -20 -20 -20 -20 -20 -20 -20 -20 -20 -20 -20 -20 -20 -20 -20 -20 -20 -20 -20 -20 -20
-20 -20 -20 -20 -20 -20 -20 -20 -20 -20 -20 -20 -20 -20 -20 -20 -20 -20 -20 -20 -20 -20 -20 -20 -20 -20 -20 -20 -19 -20 -13 -20 -20 -20 -20 -20 -20 -20 -20 -20 -20 -20 -20 -20 -19 -18 -18 -19 -20 -20 -20 -20 -20 -20
-20 -20 -20 -20 -20 -20 -20 -20 -20 -20 -20 -20 -20 -20 -20 -20 -20 -20 -20 -20 -20 -20 -20 -20 -20 -15 -20 -20 -20 -19 -18 -20 -20 -20 -9 -7 -20 -20 -20 -20 -20 -20 -20 -20 -20 -20 -18 -20 -20 -20 -20 -20 -20 -20

GFSWCAN_prec_radar_159.txt.gz
Reflectivity
22 8 -9 -20 -14 16 17 17 16 17 -1 -3 -20 -13 -12 -18 -5 1 7 -4 12 -20 -20 -20 -20 -13 -19 2 -11 15 10 -2 9 13 15 -3 -20 -20 -20 -18 6 -11 -5 -16 -20 -20 -20 -20 -20 -20 -20 -20 -20 -20
20 23 11 -20 -20 -17 17 22 -20 19 -20 2 6 9 -11 -20 20 19 13 -9 -8 16 -20 -20 -20 -20 9 10 29 22 15 -2 10 30 22 6 14 -18 -20 -20 3 17 16 4 -20 -20 -20 -20 -20 -20 -20 -20 -20 -20
22 27 15 8 -20 -16 -20 -6 20 11 -20 -20 -20 8 -10 -14 22 -10 -11 15 17 12 -20 -20 -20 -20 -20 -20 -14 13 19 -9 9 -10 16 9 -17 -20 -12 3 4 5 -1 -20 -20 -20 -20 -20 -20 -20 -20 -20 -20 -18
28 21 12 -3 -20 -3 -20 4 21 -14 -20 -20 -20 -17 -7 -14 10 4 -19 21 9 13 12 -20 -20 -20 -20 -19 -8 -20 -12 -3 8 -20 -1 -20 -20 -20 -20 -20 -12 -15 -20 -20 -20 -20 -20 -20 -20 -20 -20 -20 -20 -20
22 17 -8 -10 2 -20 6 9 18 -20 -8 -20 -20 -9 -1 -7 24 25 23 -18 -8 11 7 11 -19 -20 -20 16 3 -7 26 24 -19 -12 -1 -20 -20 -20 -20 -20 -20 -20 -20 -20 -20 -20 -20 -20 -20 -20 11 2 -20 -20
12 12 12 -15 -7 23 19 24 8 -20 -20 -20 -20 13 -5 -20 26 33 24 -20 -19 11 18 19 21 -20 25 37 27 21 5 -5 -20 -20 -20 -20 -20 -20 -20 -20 -20 -20 -20 -20 -20 -20 -20 -20 -20 -20 -20 -20 -19 -20
20 14 8 2 16 14 11 12 -20 17 -20 -20 -20 18 -17 23 29 25 -20 21 -11 3 27 17 25 3 39 33 19 -20 -20 -20 -20 -20 -20 -20 -20 -20 -20 -20 -20 -20 -20 -20 -20 -20 -20 -20 -20 -20 -20 -20 -20 -20
16 12 12 11 -13 -3 12 12 -11 -20 -20 1 9 17 23 24 22 6 -20 19 30 18 26 21 29 30 26 26 7 -8 -20 -20 -20 -20 -20 -20 -20 -20 -20 -20 -20 -20 -20 -20 -20 -20 -20 -20 -20 -20 -20 -20 -20 -20
-17 -13 2 -2 -12 8 -20 -20 -3 -18 6 17 2 21 22 12 -1 -18 -3 15 23 28 31 17 21 13 -16 -12 -20 -20 -20 -20 -20 -20 -20 -20 -20 -20 -20 -20 -20 -20 -20 -20 -20 -20 -20 -20 -20 -20 -20 -20 -20 -20
33 34 34 30 22 1 5 12 11 13 19 18 22 8 15 -20 -19 24 17 26 32 38 10 -3 -20 -5 -11 -20 -20 -20 -20 -20 -20 -20 -20 -20 -20 -20 -20 -20 -20 -20 -20 -20 -20 -20 -20 -20 -20 -20 -20 -20 -20 -20
29 28 32 25 17 16 13 10 11 18 24 15 7 14 22 18 9 31 29 31 29 16 18 2 14 -12 -20 -20 -20 -20 -20 -20 -20 -20 -20 -20 -20 -20 -20 -20 -20 -20 -20 -20 -20 -20 -20 -20 -20 -20 -20 -20 -20 -20
-3 4 -8 11 5 7 11 11 18 18 20 -8 21 30 35 26 23 19 19 11 -10 -12 -15 12 -18 -20 -20 -20 -20 -20 -20 -20 -20 -20 -20 -20 -20 -20 -20 -20 -20 -20 -20 -20 -20 -20 -20 -20 -20 -20 -20 -20 -20 -20
-4 -19 9 14 17 10 -7 10 9 -12 24 34 30 22 20 19 13 -17 -20 -20 -20 -20 -14 -20 -20 -20 -20 -20 -20 -20 -20 -20 -20 -20 -20 -20 -20 -20 -20 -20 -20 -20 -20 2 9 -20 -20 -20 -20 -20 -20 -20 -20 -20
-19 -20 -1 13 25 19 31 34 29 25 27 23 19 14 15 2 -14 -20 -20 -20 -20 -20 -20 -20 -20 -20 -20 -20 -20 -20 -20 -20 -20 -20 -20 -20 -20 -20 -20 -20 -20 -20 -20 -20 -20 -20 -20 -20 -20 -20 -20 -20 -20 -20
-18 -20 -20 -20 -12 3 13 22 28 21 18 8 -11 -3 7 -20 -10 -10 6 -11 -20 -20 -20 -20 -20 -20 -20 -20 -20 -20 -20 -20 -20 -20 -20 -20 -20 -20 -20 -20 2 -20 -20 -20 -17 3 -20 -20 -20 -20 -20 -20 -20 -20
-20 -20 -20 -20 -20 -20 -20 -20 -19 -2 -18 -20 -20 -20 -20 -20 -20 -20 -20 -20 -20 -20 -20 -20 -20 -20 -20 -20 -20 -20 -20 -20 -20 -20 -20 -20 -20 -17 10 -20 -20 -20 -20 -20 -4 -1 1 -20 -20 -20 -20 -20 -10 -11
-20 -20 -20 -20 -20 -20 -20 -20 -20 -20 -20 -20 -20 -20 -20 -20 -20 -20 -20 -20 -20 -20 -20 -20 -20 -20 -20 -20 -20 -20 -20 -20 -20 -20 -20 -20 -20 -20 -20 -20 -20 -20 -20 -20 7 -19 -20 -20 -20 -20 -20 -19 5 -5
-20 -20 -20 -20 -20 -20 -20 -20 -20 -20 -20 -20 -20 -20 -20 -20 -20 -20 -20 -20 -20 -20 -20 -20 -20 -20 -20 -20 -20 -20 -20 -20 -20 -20 -20 -20 -20 -20 -20 -20 -20 -20 -20 0 5 9 -9 -20 -20 -20 -1 -5 -7 -1
-20 -20 -20 -20 -20 -20 -20 -20 -20 -20 -20 -20 -20 -20 -20 -20 -20 -20 -20 -20 -20 -20 -20 -20 4 -20 -20 -20 -20 -20 -20 -20 -20 -20 -20 -20 -20 -20 -20 -20 -20 -20 -20 4 -0 -4 -20 -20 -20 -20 -20 -20 -20 -20
-20 -20 -20 -20 -20 -20 -20 -20 -20 -20 -20 -20 -20 -20 -20 -20 -20 -20 -20 -20 -20 -20 -15 -20 -20 -20 -20 -20 -20 -20 -20 -20 -20 -20 -20 -20 -20 -20 -20 -20 -20 -20 -16 -16 -20 3 -20 -20 -20 -20 -20 -20 -20 -20
-20 -20 -20 -20 -20 -20 -20 -20 -20 -20 -20 -20 -20 -20 -20 -20 -20 -20 -20 -20 -17 10 -20 -20 -20 -20 -20 -20 -20 -20 -20 -20 -20 -20 -20 -20 -20 -20 -20 -20 -20 -16 -18 -17 -20 -13 -0 -20 -20 -20 -20 -20 -20 -20
-20 -20 -20 -20 -20 -20 -20 -20 -20 -20 -20 -20 -20 -20 -20 -20 -20 -17 -10 -13 -20 -20 -20 -20 -20 -20 -20 -20 -20 -20 -20 -20 -20 -20 -5 -20 -20 -20 -20 -20 -20 -20 -20 -20 -20 -20 -20 -20 -20 -20 -20 -20 -20 -20
-20 -20 -20 -20 -20 -20 -20 -20 -20 -20 -20 -20 -20 -20 -20 -20 -16 9 -0 -17 -20 -20 -20 -20 -20 -20 -20 -20 -20 -20 -20 -20 -20 -20 -20 -20 -20 -20 -20 -20 -2 -20 -20 -20 -20 -20 -20 -20 -20 -20 -20 -20 -20 -20
-20 -20 -20 -20 -20 -20 -20 -20 -20 -20 -20 -20 -20 -20 -20 -20 -15 -17 -20 -20 -20 -20 -20 -20 -20 -20 -20 -20 -20 -20 -20 -20 -20 -20 -20 -20 -20 -20 -20 -16 -20 -20 -20 -16 -20 -20 -20 -20 -20 -20 -20 -20 -20 -20
-20 -20 -20 -20 -20 -20 -20 -20 -20 -20 -20 -20 -9 -20 -20 -20 -19 -20 -20 -20 -10 9 -0 -1 0 1 -1 -14 12 17 26 5 3 -20 -20 -20 -20 -20 -18 -16 -20 -15 -19 -17 -18 -20 -20 -20 -20 -20 -20 -20 -12 -0
-20 -20 -20 -20 -20 -20 -20 -20 -20 -20 -20 -20 -20 -20 -20 0 -20 -20 -19 2 -1 -14 -20 -20 -20 -20 -20 10 10 12 9 9 -18 -20 -20 -20 -20 -20 -20 -20 -20 -20 -20 -20 -13 -4 -14 -6 -15 -20 -8 -6 -4 -1
-20 -20 -20 -20 -20 -20 -20 -20 -20 -20 -20 -20 -20 -20 -20 -20 -20 -20 -5 16 16 -9 -20 -20 -20 -20 -20 -19 -18 -13 -13 -19 -18 -20 -20 -20 -20 -20 -20 -20 -20 -20 -20 -20 -20 -20 -20 -17 -18 -20 -19 -6 -10 -5
-20 -20 -20 -20 -20 -20 -20 -20 -20 -20 -20 -20 -20 -20 -20 -20 -20 -20 -19 -20 -20 -20 -20 -20 -20 -20 -20 -19 -14 -19 -18 -20 -20 -20 -20 -20 -20 -20 -20 -20 -20 -20 -20 -20 -20 -20 -20 -20 -20 -20 -20 -20 -17 3
-20 -20 -20 -20 -20 -20 -20 -20 -20 -20 -20 -20 -20 -20 -20 -20 -20 -20 -20 -20 -20 -20 -20 -20 -20 -20 -20 -20 -17 -13 -20 -20 -20 -20 -20 -20 -20 -20 -20 -20 -20 -20 -20 -20 -20 -20 -20 -20 -20 -20 -20 -20 -9 -18
-20 -20 -20 -20 -20 -20 -20 -20 -20 -20 -20 -20 -20 -20 -20 -20 -20 -20 -20 -20 -20 -20 -20 -20 -20 -20 -20 -20 -20 -16 -18 -20 -20 -20 -20 -20 -20 -20 -20 -20 -20 -20 -20 -20 -20 -20 -20 -20 -20 -20 -20 -20 -20 -20
-20 -20 -20 -20 -20 -20 -20 -20 -20 -20 -20 -20 -20 -20 -20 -20 -20 -20 -20 -20 -20 -20 -20 -20 -20 -20 -20 -20 -20 -20 -20 -20 -20 -20 -20 -20 -20 -20 -20 -20 -20 -20 -20 -20 -20 -20 -20 -20 -20 -20 -20 -20 -20 -20
-20 -20 -20 -20 -20 -20 -20 -20 -20 -20 -20 -20 -20 -20 -20 -20 -20 -20 -20 -20 -20 -20 -20 -14 -20 -20 -20 -20 -20 -20 -20 -20 -20 -20 -20 -20 -20 -20 -20 -20 -20 -20 -20 -20 -20 -20 -19 -19 -20 -19 -19 -19 -20 -20
-20 -20 -20 -20 -20 -20 -20 -20 -20 -19 -16 -20 -20 -20 -20 -20 -20 -20 -20 -20 -20 -19 -18 -19 -19 -20 -20 -20 -20 -19 -16 -19 -20 -20 -20 -20 4 -20 -20 -20 -20 -20 -20 -20 -20 -20 -19 -20 -20 -20 -20 -20 -20 -20